| time (UTC) | temp C | wind direction | speed KPH | gust KPH | rain 1hr cm | rain 24hr cm | rain mn cm | humidity % | barometer mb |
| 20260508050509 | 6 | 11 | 1.6 | 6.4 | 0.00 | 0.05 | 0.00 | 57 | 1006.3 |
| 20260508050023 | 6 | 45 | 0.0 | 3.2 | 0.00 | 0.05 | 0.00 | 57 | 1006.4 |
| 20260508045509 | 5 | 67 | 0.0 | 3.2 | 0.00 | 0.08 | 0.00 | 58 | 1006.3 |
| 20260508045009 | 5 | 297 | 0.0 | 3.2 | 0.00 | 0.15 | 0.00 | 59 | 1006.3 |
| 20260508044526 | 5 | 300 | 0.0 | 3.2 | 0.00 | 0.20 | 0.00 | 60 | 1006.3 |
| 20260508044009 | 5 | 5 | 0.0 | 3.2 | 0.00 | 0.23 | 0.00 | 58 | 1006.3 |
| 20260508043506 | 5 | 5 | 0.0 | 3.2 | 0.00 | 0.23 | 0.00 | 64 | 1006.2 |
| 20260508043016 | 6 | 9 | 0.0 | 3.2 | 0.00 | 0.25 | 0.00 | 62 | 1006.3 |
| 20260508042508 | 6 | 45 | 0.0 | 3.2 | 0.00 | 0.28 | 0.00 | 56 | 1006.4 |
| 20260508042006 | 6 | 21 | 0.0 | 3.2 | 0.00 | 0.33 | 0.00 | 55 | 1006.4 |
| 20260508041520 | 6 | 50 | 0.0 | 3.2 | 0.00 | 0.36 | 0.00 | 55 | 1006.5 |
| 20260508041008 | 6 | 57 | 0.0 | 6.4 | 0.00 | 0.38 | 0.00 | 56 | 1006.4 |
| 20260508040509 | 6 | 46 | 0.0 | 6.4 | 0.00 | 0.41 | 0.00 | 55 | 1006.4 |
| 20260508040030 | 6 | 76 | 1.6 | 4.8 | 0.00 | 0.41 | 0.00 | 56 | 1006.4 |
| 20260508035506 | 6 | 5 | 0.0 | 6.4 | 0.00 | 0.41 | 0.41 | 59 | 1006.4 |
| 20260508035009 | 5 | 79 | 0.0 | 6.4 | 0.00 | 0.41 | 0.41 | 58 | 1006.4 |
| 20260508034535 | 5 | 60 | 0.0 | 3.2 | 0.00 | 0.43 | 0.41 | 62 | 1006.4 |
| 20260508034013 | 5 | 21 | 0.0 | 3.2 | 0.00 | 0.46 | 0.41 | 65 | 1006.5 |
| 20260508033509 | 5 | 281 | 0.0 | 3.2 | 0.00 | 0.48 | 0.41 | 63 | 1006.6 |
| 20260508033032 | 5 | 317 | 0.0 | 3.2 | 0.00 | 0.48 | 0.41 | 60 | 1006.7 |
| 20260508032512 | 5 | 16 | 0.0 | 0.0 | 0.00 | 0.48 | 0.41 | 57 | 1006.6 |
| 20260508032005 | 6 | 16 | 0.0 | 0.0 | 0.00 | 0.48 | 0.41 | 59 | 1006.5 |
| 20260508031517 | 6 | 45 | 0.0 | 0.0 | 0.00 | 0.48 | 0.41 | 59 | 1006.5 |
| 20260508031008 | 6 | 46 | 0.0 | 0.0 | 0.00 | 0.48 | 0.41 | 56 | 1006.6 |
| 20260508030506 | 6 | 46 | 0.0 | 0.0 | 0.00 | 0.48 | 0.41 | 57 | 1006.6 |
| 20260508030020 | 6 | 48 | 0.0 | 3.2 | 0.00 | 0.51 | 0.41 | 57 | 1006.6 |
| 20260508025508 | 6 | 46 | 0.0 | 3.2 | 0.00 | 0.51 | 0.41 | 54 | 1006.6 |
| 20260508025009 | 6 | 352 | 0.0 | 1.6 | 0.00 | 0.51 | 0.41 | 56 | 1006.4 |
| 20260508024526 | 6 | 30 | 0.0 | 1.6 | 0.00 | 0.51 | 0.41 | 54 | 1006.4 |
| 20260508024009 | 6 | 342 | 0.0 | 0.0 | 0.00 | 0.51 | 0.41 | 54 | 1006.4 |
| 20260508023510 | 7 | 342 | 0.0 | 0.0 | 0.00 | 0.51 | 0.41 | 53 | 1006.4 |
| 20260508023026 | 7 | 347 | 0.0 | 0.0 | 0.00 | 0.51 | 0.41 | 52 | 1006.4 |
| 20260508022510 | 7 | 347 | 0.0 | 0.0 | 0.00 | 0.51 | 0.41 | 51 | 1006.3 |
| 20260508022011 | 7 | 347 | 0.0 | 0.0 | 0.00 | 0.53 | 0.41 | 49 | 1006.2 |
| 20260508021527 | 8 | 347 | 0.0 | 3.2 | 0.00 | 0.53 | 0.41 | 48 | 1006.2 |
| 20260508021012 | 8 | 347 | 0.0 | 3.2 | 0.00 | 0.56 | 0.41 | 47 | 1006.2 |
| 20260508020503 | 8 | 347 | 0.0 | 3.2 | 0.00 | 0.56 | 0.41 | 48 | 1006.1 |
| 20260508020016 | 8 | 32 | 0.0 | 3.2 | 0.00 | 0.56 | 0.41 | 47 | 1006.0 |
| 20260508015509 | 8 | 352 | 0.0 | 3.2 | 0.00 | 0.58 | 0.41 | 47 | 1006.1 |
| 20260508015009 | 8 | 42 | 1.6 | 9.7 | 0.00 | 0.61 | 0.41 | 47 | 1006.2 |
| 20260508014527 | 8 | 38 | 1.6 | 9.7 | 0.00 | 0.61 | 0.41 | 47 | 1006.1 |
| 20260508014011 | 8 | 17 | 1.6 | 4.8 | 0.00 | 0.64 | 0.41 | 46 | 1006.1 |
| 20260508013511 | 9 | 11 | 1.6 | 4.8 | 0.00 | 0.64 | 0.41 | 47 | 1006.1 |
| 20260508013023 | 9 | 11 | 1.6 | 4.8 | 0.00 | 0.64 | 0.41 | 46 | 1006.1 |
| 20260508012515 | 9 | 14 | 1.6 | 4.8 | 0.00 | 0.64 | 0.41 | 47 | 1006.0 |
| 20260508012012 | 9 | 13 | 1.6 | 3.2 | 0.00 | 0.64 | 0.41 | 45 | 1006.1 |
| 20260508011529 | 9 | 352 | 1.6 | 6.4 | 0.00 | 0.66 | 0.41 | 45 | 1006.0 |
| 20260508011011 | 10 | 360 | 3.2 | 8.0 | 0.00 | 0.66 | 0.41 | 45 | 1006.0 |
| 20260508010511 | 10 | 10 | 3.2 | 8.0 | 0.00 | 0.66 | 0.41 | 44 | 1005.9 |
| 20260508010040 | 10 | 331 | 3.2 | 8.0 | 0.00 | 0.66 | 0.41 | 46 | 1005.9 |
| 20260508005512 | 10 | 5 | 1.6 | 6.4 | 0.00 | 0.66 | 0.41 | 46 | 1005.9 |
| 20260508005005 | 10 | 5 | 1.6 | 6.4 | 0.00 | 0.66 | 0.41 | 44 | 1005.8 |
| 20260508004525 | 10 | 9 | 1.6 | 12.9 | 0.00 | 0.66 | 0.41 | 45 | 1005.8 |
| 20260508004010 | 10 | 16 | 3.2 | 12.9 | 0.00 | 0.66 | 0.41 | 45 | 1005.6 |
| 20260508003507 | 10 | 22 | 3.2 | 9.7 | 0.00 | 0.66 | 0.41 | 46 | 1005.6 |
| 20260508003022 | 10 | 9 | 3.2 | 9.7 | 0.00 | 0.66 | 0.41 | 45 | 1005.6 |
| 20260508002510 | 10 | 322 | 3.2 | 14.5 | 0.00 | 0.66 | 0.41 | 44 | 1005.5 |
| 20260508002004 | 11 | 9 | 3.2 | 14.5 | 0.00 | 0.66 | 0.41 | 44 | 1005.4 |
| 20260508001506 | 11 | 28 | 3.2 | 4.8 | 0.00 | 0.66 | 0.41 | 45 | 1005.4 |
| 20260508001002 | 11 | 27 | 1.6 | 6.4 | 0.00 | 0.66 | 0.41 | 44 | 1005.3 |
| 20260508000503 | 11 | 20 | 3.2 | 6.4 | 0.00 | 0.66 | 0.41 | 43 | 1005.2 |
| 20260508000011 | 11 | 38 | 3.2 | 6.4 | 0.00 | 0.66 | 0.41 | 43 | 1005.1 |
| 20260507235507 | 11 | 38 | 1.6 | 4.8 | 0.00 | 0.66 | 0.41 | 41 | 1005.0 |
| 20260507235003 | 12 | 352 | 0.0 | 6.4 | 0.00 | 0.66 | 0.41 | 41 | 1004.9 |
| 20260507234516 | 12 | 31 | 1.6 | 6.4 | 0.00 | 0.66 | 0.41 | 40 | 1004.8 |
| 20260507234006 | 12 | 333 | 1.6 | 8.0 | 0.00 | 0.66 | 0.41 | 39 | 1004.6 |
| 20260507233507 | 12 | 47 | 1.6 | 8.0 | 0.00 | 0.69 | 0.41 | 40 | 1004.6 |
| 20260507233022 | 12 | 319 | 1.6 | 8.0 | 0.00 | 0.69 | 0.41 | 39 | 1004.5 |
| 20260507232503 | 12 | 327 | 1.6 | 6.4 | 0.00 | 0.69 | 0.41 | 40 | 1004.5 |
| 20260507232004 | 12 | 19 | 0.0 | 6.4 | 0.00 | 0.69 | 0.41 | 40 | 1004.4 |
| 20260507231507 | 13 | 32 | 1.6 | 8.0 | 0.00 | 0.69 | 0.41 | 38 | 1004.3 |
| 20260507231004 | 13 | 352 | 4.8 | 8.0 | 0.00 | 0.69 | 0.41 | 37 | 1004.2 |
| 20260507230504 | 13 | 16 | 1.6 | 4.8 | 0.00 | 0.69 | 0.41 | 37 | 1004.0 |
| 20260507230011 | 13 | 53 | 3.2 | 8.0 | 0.00 | 0.69 | 0.41 | 37 | 1003.9 |
| 20260507225506 | 13 | 42 | 1.6 | 8.0 | 0.00 | 0.69 | 0.41 | 38 | 1003.9 |
| 20260507225003 | 13 | 38 | 3.2 | 8.0 | 0.00 | 0.69 | 0.41 | 37 | 1003.8 |
| 20260507224516 | 13 | 327 | 3.2 | 11.3 | 0.00 | 0.69 | 0.41 | 36 | 1003.7 |
| 20260507224007 | 13 | 35 | 3.2 | 25.7 | 0.00 | 0.69 | 0.41 | 35 | 1003.6 |
| 20260507223510 | 13 | 321 | 1.6 | 25.7 | 0.00 | 0.69 | 0.41 | 37 | 1003.5 |
| 20260507223020 | 14 | 32 | 3.2 | 9.7 | 0.00 | 0.69 | 0.41 | 36 | 1003.5 |
| 20260507222508 | 14 | 351 | 1.6 | 9.7 | 0.00 | 0.69 | 0.41 | 35 | 1003.4 |
| 20260507222009 | 15 | 352 | 3.2 | 8.0 | 0.00 | 0.71 | 0.41 | 34 | 1003.3 |
| 20260507221523 | 15 | 302 | 1.6 | 9.7 | 0.00 | 0.71 | 0.41 | 34 | 1003.3 |
| 20260507221003 | 15 | 28 | 3.2 | 14.5 | 0.00 | 0.71 | 0.41 | 32 | 1003.2 |
| 20260507220505 | 15 | 308 | 3.2 | 16.1 | 0.00 | 0.74 | 0.41 | 34 | 1003.2 |
| 20260507220009 | 15 | 238 | 3.2 | 16.1 | 0.00 | 0.74 | 0.41 | 33 | 1003.1 |
| 20260507215504 | 15 | 344 | 1.6 | 8.0 | 0.00 | 0.74 | 0.41 | 34 | 1003.2 |
| 20260507215004 | 15 | 88 | 3.2 | 14.5 | 0.00 | 0.76 | 0.41 | 35 | 1003.1 |
| 20260507214519 | 16 | 50 | 4.8 | 14.5 | 0.00 | 0.81 | 0.41 | 32 | 1003.1 |
| 20260507214003 | 16 | 307 | 4.8 | 14.5 | 0.00 | 0.91 | 0.41 | 35 | 1003.1 |
| 20260507213506 | 16 | 195 | 3.2 | 9.7 | 0.00 | 0.94 | 0.41 | 33 | 1003.1 |
| 20260507213017 | 16 | 53 | 3.2 | 9.7 | 0.00 | 0.99 | 0.41 | 33 | 1003.1 |
| 20260507212506 | 16 | 335 | 3.2 | 17.7 | 0.00 | 1.02 | 0.41 | 35 | 1003.1 |
| 20260507212008 | 16 | 343 | 4.8 | 17.7 | 0.00 | 1.07 | 0.41 | 32 | 1003.0 |
| 20260507211534 | 16 | 360 | 4.8 | 16.1 | 0.00 | 1.12 | 0.41 | 33 | 1003.0 |
| 20260507211007 | 16 | 314 | 4.8 | 17.7 | 0.00 | 1.17 | 0.41 | 32 | 1003.1 |
| 20260507210507 | 16 | 317 | 8.0 | 17.7 | 0.00 | 1.19 | 0.41 | 32 | 1003.0 |
| 20260507210026 | 16 | 198 | 1.6 | 17.7 | 0.00 | 1.22 | 0.41 | 33 | 1003.0 |
| 20260507205504 | 16 | 211 | 4.8 | 19.3 | 0.00 | 1.22 | 0.41 | 31 | 1002.9 |
| 20260507205004 | 16 | 277 | 8.0 | 19.3 | 0.00 | 1.24 | 0.41 | 31 | 1002.9 |
| 20260507204510 | 16 | 345 | 3.2 | 19.3 | 0.00 | 1.27 | 0.41 | 33 | 1002.8 |
| 20260507204005 | 16 | 162 | 6.4 | 20.9 | 0.00 | 1.27 | 0.41 | 33 | 1002.7 |
| 20260507203505 | 16 | 223 | 8.0 | 20.9 | 0.00 | 1.30 | 0.41 | 33 | 1002.7 |
| 20260507203020 | 16 | 209 | 6.4 | 19.3 | 0.00 | 1.37 | 0.41 | 37 | 1002.8 |
| 20260507202506 | 16 | 279 | 6.4 | 19.3 | 0.00 | 1.47 | 0.41 | 36 | 1002.8 |
| 20260507202004 | 16 | 352 | 3.2 | 25.7 | 0.00 | 1.57 | 0.41 | 40 | 1002.6 |
| 20260507201522 | 16 | 294 | 3.2 | 25.7 | 0.00 | 1.65 | 0.41 | 41 | 1002.6 |
| 20260507201007 | 16 | 215 | 3.2 | 14.5 | 0.00 | 1.70 | 0.41 | 41 | 1002.8 |
| 20260507200510 | 16 | 275 | 3.2 | 14.5 | 0.00 | 1.73 | 0.41 | 42 | 1002.7 |
| 20260507200025 | 16 | 21 | 6.4 | 14.5 | 0.00 | 1.75 | 0.41 | 43 | 1002.8 |
| 20260507195509 | 16 | 346 | 3.2 | 11.3 | 0.00 | 1.78 | 0.41 | 46 | 1002.8 |
| 20260507195012 | 15 | 215 | 3.2 | 14.5 | 0.00 | 1.88 | 0.41 | 47 | 1002.7 |
| 20260507194507 | 15 | 89 | 3.2 | 20.9 | 0.00 | 1.96 | 0.41 | 48 | 1002.9 |
| 20260507194001 | 15 | 282 | 4.8 | 20.9 | 0.00 | 2.01 | 0.41 | 48 | 1002.9 |
| 20260507193506 | 15 | 350 | 4.8 | 16.1 | 0.00 | 2.01 | 0.41 | 48 | 1002.8 |
| 20260507193012 | 15 | 256 | 3.2 | 12.9 | 0.00 | 2.01 | 0.41 | 48 | 1002.8 |
| 20260507192509 | 15 | 178 | 1.6 | 12.9 | 0.00 | 2.03 | 0.41 | 48 | 1002.8 |
| 20260507192009 | 15 | 240 | 1.6 | 16.1 | 0.00 | 2.06 | 0.41 | 48 | 1002.8 |
| 20260507191516 | 15 | 330 | 4.8 | 17.7 | 0.00 | 2.08 | 0.41 | 47 | 1002.8 |
| 20260507191007 | 15 | 181 | 8.0 | 17.7 | 0.00 | 2.11 | 0.41 | 46 | 1002.8 |
| 20260507190505 | 15 | 34 | 3.2 | 9.7 | 0.00 | 2.13 | 0.41 | 53 | 1002.7 |
| 20260507190022 | 16 | 219 | 1.6 | 9.7 | 0.00 | 2.13 | 0.41 | 52 | 1002.8 |
| 20260507185507 | 15 | 277 | 1.6 | 12.9 | 0.00 | 2.16 | 0.41 | 46 | 1002.8 |
| 20260507185008 | 16 | 346 | 1.6 | 12.9 | 0.00 | 2.18 | 0.41 | 45 | 1002.8 |
| 20260507184526 | 16 | 311 | 1.6 | 11.3 | 0.00 | 2.18 | 0.41 | 45 | 1002.8 |
| 20260507184007 | 16 | 9 | 3.2 | 11.3 | 0.00 | 2.18 | 0.41 | 44 | 1002.8 |
| 20260507183512 | 17 | 257 | 4.8 | 9.7 | 0.00 | 2.18 | 0.41 | 44 | 1002.8 |
| 20260507183019 | 17 | 121 | 0.0 | 9.7 | 0.00 | 2.18 | 0.41 | 44 | 1002.8 |
| 20260507182506 | 16 | 21 | 3.2 | 9.7 | 0.00 | 2.18 | 0.41 | 46 | 1002.9 |
| 20260507182003 | 16 | 300 | 3.2 | 8.0 | 0.00 | 2.18 | 0.41 | 44 | 1002.9 |
| 20260507181515 | 16 | 210 | 1.6 | 9.7 | 0.00 | 2.18 | 0.41 | 44 | 1003.0 |
| 20260507181009 | 16 | 268 | 3.2 | 9.7 | 0.00 | 2.18 | 0.41 | 46 | 1003.1 |
| 20260507180506 | 15 | 245 | 3.2 | 9.7 | 0.00 | 2.18 | 0.41 | 47 | 1003.2 |
| 20260507180020 | 15 | 270 | 0.0 | 4.8 | 0.00 | 2.18 | 0.41 | 49 | 1003.3 |
| 20260507175516 | 15 | 352 | 3.2 | 4.8 | 0.00 | 2.18 | 0.41 | 49 | 1003.3 |
| 20260507175006 | 15 | 319 | 0.0 | 4.8 | 0.00 | 2.18 | 0.41 | 51 | 1003.4 |
| 20260507174526 | 15 | 360 | 0.0 | 8.0 | 0.00 | 2.18 | 0.41 | 51 | 1003.3 |
| 20260507174008 | 15 | 70 | 3.2 | 9.7 | 0.00 | 2.18 | 0.41 | 53 | 1003.4 |
| 20260507173507 | 15 | 223 | 1.6 | 9.7 | 0.00 | 2.18 | 0.41 | 49 | 1003.4 |
| 20260507173024 | 15 | 246 | 0.0 | 6.4 | 0.00 | 2.18 | 0.41 | 52 | 1003.5 |
| 20260507172510 | 15 | 317 | 0.0 | 9.7 | 0.00 | 2.18 | 0.41 | 49 | 1003.5 |
| 20260507172002 | 15 | 200 | 4.8 | 9.7 | 0.00 | 2.18 | 0.41 | 50 | 1003.5 |
| 20260507171510 | 15 | 246 | 1.6 | 8.0 | 0.00 | 2.18 | 0.41 | 50 | 1003.5 |
| 20260507171006 | 15 | 223 | 1.6 | 11.3 | 0.00 | 2.18 | 0.41 | 48 | 1003.6 |
| 20260507170511 | 15 | 10 | 1.6 | 16.1 | 0.00 | 2.18 | 0.41 | 52 | 1003.5 |
| 20260507170018 | 15 | 238 | 3.2 | 16.1 | 0.00 | 2.18 | 0.41 | 52 | 1003.6 |
| 20260507165509 | 15 | 236 | 4.8 | 12.9 | 0.00 | 2.18 | 0.41 | 51 | 1003.5 |
| 20260507165009 | 15 | 319 | 0.0 | 14.5 | 0.00 | 2.18 | 0.41 | 50 | 1003.6 |
| 20260507164527 | 15 | 133 | 4.8 | 14.5 | 0.00 | 2.18 | 0.41 | 51 | 1003.7 |
| 20260507164010 | 15 | 200 | 6.4 | 14.5 | 0.00 | 2.18 | 0.41 | 51 | 1003.7 |
| 20260507163509 | 15 | 239 | 4.8 | 12.9 | 0.00 | 2.18 | 0.41 | 51 | 1003.8 |
| 20260507163024 | 15 | 258 | 1.6 | 6.4 | 0.00 | 2.18 | 0.41 | 51 | 1003.8 |
| 20260507162507 | 15 | 10 | 3.2 | 6.4 | 0.00 | 2.18 | 0.41 | 52 | 1003.8 |
| 20260507162012 | 15 | 56 | 0.0 | 11.3 | 0.00 | 2.18 | 0.41 | 51 | 1003.9 |
| 20260507161539 | 15 | 219 | 4.8 | 12.9 | 0.00 | 2.18 | 0.41 | 50 | 1004.0 |
| 20260507161011 | 15 | 250 | 4.8 | 12.9 | 0.00 | 2.18 | 0.41 | 52 | 1004.0 |
| 20260507160503 | 15 | 180 | 3.2 | 14.5 | 0.00 | 2.18 | 0.41 | 50 | 1004.2 |
| 20260507160034 | 15 | 252 | 3.2 | 14.5 | 0.00 | 2.18 | 0.41 | 51 | 1004.4 |
| 20260507155508 | 15 | 313 | 3.2 | 9.7 | 0.00 | 2.18 | 0.41 | 53 | 1004.4 |
| 20260507155009 | 15 | 231 | 3.2 | 12.9 | 0.00 | 2.18 | 0.41 | 57 | 1004.4 |
| 20260507154523 | 14 | 292 | 4.8 | 12.9 | 0.00 | 2.18 | 0.41 | 54 | 1004.5 |
| 20260507154010 | 14 | 197 | 0.0 | 8.0 | 0.00 | 2.18 | 0.41 | 58 | 1004.5 |
| 20260507153512 | 14 | 279 | 3.2 | 8.0 | 0.00 | 2.18 | 0.41 | 60 | 1004.5 |
| 20260507153024 | 14 | 352 | 3.2 | 8.0 | 0.00 | 2.18 | 0.41 | 59 | 1004.5 |
| 20260507152509 | 14 | 196 | 1.6 | 4.8 | 0.00 | 2.18 | 0.41 | 60 | 1004.5 |
| 20260507152007 | 13 | 301 | 0.0 | 9.7 | 0.00 | 2.18 | 0.41 | 58 | 1004.6 |
| 20260507151528 | 13 | 206 | 3.2 | 9.7 | 0.00 | 2.18 | 0.41 | 60 | 1004.6 |
| 20260507151013 | 14 | 213 | 1.6 | 8.0 | 0.00 | 2.18 | 0.41 | 60 | 1004.6 |
| 20260507150513 | 14 | 38 | 1.6 | 6.4 | 0.00 | 2.18 | 0.41 | 61 | 1004.6 |
| 20260507150031 | 13 | 338 | 1.6 | 11.3 | 0.00 | 2.18 | 0.41 | 59 | 1004.6 |
| 20260507145507 | 13 | 136 | 0.0 | 14.5 | 0.00 | 2.18 | 0.41 | 60 | 1004.6 |
| 20260507145006 | 13 | 282 | 6.4 | 14.5 | 0.00 | 2.18 | 0.41 | 62 | 1004.7 |
| 20260507144526 | 13 | 344 | 1.6 | 8.0 | 0.00 | 2.18 | 0.41 | 61 | 1004.7 |
| 20260507144008 | 13 | 220 | 3.2 | 8.0 | 0.00 | 2.18 | 0.41 | 58 | 1004.8 |
| 20260507143508 | 13 | 298 | 1.6 | 4.8 | 0.00 | 2.18 | 0.41 | 62 | 1004.9 |
| 20260507143025 | 13 | 327 | 0.0 | 6.4 | 0.00 | 2.18 | 0.41 | 64 | 1004.9 |
| 20260507142509 | 13 | 36 | 3.2 | 6.4 | 0.00 | 2.18 | 0.41 | 62 | 1005.0 |
| 20260507142008 | 13 | 323 | 1.6 | 6.4 | 0.00 | 2.18 | 0.41 | 62 | 1005.0 |
| 20260507141525 | 13 | 304 | 0.0 | 9.7 | 0.00 | 2.18 | 0.41 | 68 | 1005.1 |
| 20260507141011 | 12 | 234 | 0.0 | 9.7 | 0.00 | 2.18 | 0.41 | 69 | 1005.1 |
| 20260507140508 | 12 | 321 | 1.6 | 9.7 | 0.00 | 2.18 | 0.41 | 65 | 1005.1 |
| 20260507140025 | 12 | 211 | 4.8 | 9.7 | 0.00 | 2.18 | 0.41 | 67 | 1005.2 |
| 20260507135508 | 12 | 259 | 3.2 | 8.0 | 0.00 | 2.18 | 0.41 | 69 | 1005.2 |
| 20260507135009 | 12 | 324 | 1.6 | 3.2 | 0.00 | 2.18 | 0.41 | 70 | 1005.2 |
| 20260507134528 | 12 | 92 | 1.6 | 4.8 | 0.00 | 2.18 | 0.41 | 73 | 1005.2 |
| 20260507134007 | 11 | 226 | 1.6 | 4.8 | 0.00 | 2.18 | 0.41 | 71 | 1005.0 |
| 20260507133508 | 11 | 79 | 1.6 | 4.8 | 0.00 | 2.18 | 0.41 | 71 | 1005.1 |
| 20260507133021 | 11 | 140 | 0.0 | 4.8 | 0.00 | 2.18 | 0.41 | 73 | 1005.1 |
| 20260507132509 | 11 | 239 | 0.0 | 4.8 | 0.00 | 2.18 | 0.41 | 76 | 1005.2 |
| 20260507132010 | 11 | 300 | 0.0 | 4.8 | 0.00 | 2.18 | 0.41 | 76 | 1005.2 |
| 20260507131526 | 10 | 171 | 0.0 | 4.8 | 0.00 | 2.18 | 0.41 | 75 | 1005.3 |
| 20260507131010 | 10 | 55 | 1.6 | 9.7 | 0.00 | 2.18 | 0.41 | 77 | 1005.3 |
| 20260507130507 | 10 | 71 | 0.0 | 9.7 | 0.00 | 2.18 | 0.41 | 77 | 1005.3 |
| 20260507130028 | 10 | 210 | 3.2 | 6.4 | 0.00 | 2.18 | 0.41 | 75 | 1005.5 |
| 20260507125510 | 10 | 288 | 1.6 | 6.4 | 0.00 | 2.18 | 0.41 | 78 | 1005.5 |
| 20260507125008 | 10 | 344 | 1.6 | 6.4 | 0.00 | 2.18 | 0.41 | 80 | 1005.5 |
| 20260507124544 | 10 | 244 | 1.6 | 4.8 | 0.00 | 2.18 | 0.41 | 81 | 1005.4 |
| 20260507124012 | 10 | 43 | 0.0 | 3.2 | 0.00 | 2.18 | 0.41 | 80 | 1005.4 |
| 20260507123510 | 10 | 195 | 0.0 | 4.8 | 0.00 | 2.18 | 0.41 | 79 | 1005.5 |
| 20260507123018 | 10 | 49 | 1.6 | 4.8 | 0.00 | 2.18 | 0.41 | 81 | 1005.5 |
| 20260507122508 | 9 | 317 | 1.6 | 8.0 | 0.00 | 2.18 | 0.41 | 83 | 1005.5 |
| 20260507122009 | 9 | 346 | 1.6 | 8.0 | 0.00 | 2.18 | 0.41 | 82 | 1005.6 |
| 20260507121520 | 9 | 325 | 0.0 | 4.8 | 0.00 | 2.18 | 0.41 | 85 | 1005.5 |
| 20260507121003 | 9 | 342 | 0.0 | 3.2 | 0.00 | 2.18 | 0.41 | 86 | 1005.5 |
| 20260507120508 | 8 | 51 | 1.6 | 3.2 | 0.00 | 2.18 | 0.41 | 86 | 1005.6 |
| 20260507120006 | 8 | 344 | 1.6 | 3.2 | 0.00 | 2.18 | 0.41 | 88 | 1005.6 |
| 20260507115504 | 8 | 301 | 1.6 | 3.2 | 0.00 | 2.18 | 0.41 | 89 | 1005.4 |
| 20260507115004 | 8 | 303 | 0.0 | 4.8 | 0.00 | 2.18 | 0.41 | 91 | 1005.7 |
| 20260507114509 | 7 | 211 | 0.0 | 4.8 | 0.00 | 2.18 | 0.41 | 91 | 1005.8 |
| 20260507114004 | 7 | 288 | 0.0 | 3.2 | 0.00 | 2.18 | 0.41 | 92 | 1005.8 |
| 20260507113503 | 7 | 213 | 0.0 | 3.2 | 0.00 | 2.18 | 0.41 | 93 | 1005.9 |
| 20260507113019 | 7 | 244 | 0.0 | 3.2 | 0.00 | 2.18 | 0.41 | 94 | 1006.1 |
| 20260507112507 | 7 | 159 | 0.0 | 0.0 | 0.00 | 2.18 | 0.41 | 94 | 1005.8 |
| 20260507112008 | 7 | 124 | 0.0 | 3.2 | 0.00 | 2.18 | 0.41 | 94 | 1005.6 |
| 20260507111519 | 7 | 124 | 0.0 | 4.8 | 0.00 | 2.18 | 0.41 | 94 | 1005.8 |
| 20260507111010 | 7 | 186 | 0.0 | 4.8 | 0.00 | 2.18 | 0.41 | 94 | 1006.2 |
| 20260507110506 | 7 | 196 | 1.6 | 3.2 | 0.00 | 2.18 | 0.41 | 95 | 1006.4 |
| 20260507110009 | 7 | 285 | 0.0 | 3.2 | 0.00 | 2.18 | 0.41 | 95 | 1005.9 |
| 20260507105502 | 7 | 286 | 0.0 | 3.2 | 0.00 | 2.18 | 0.41 | 96 | 1006.0 |
| 20260507105003 | 7 | 88 | 0.0 | 3.2 | 0.00 | 2.18 | 0.41 | 96 | 1005.8 |
| 20260507104509 | 7 | 216 | 0.0 | 3.2 | 0.00 | 2.18 | 0.41 | 96 | 1006.0 |
| 20260507104004 | 7 | 43 | 0.0 | 3.2 | 0.00 | 2.18 | 0.41 | 96 | 1005.3 |
| 20260507103506 | 7 | 323 | 0.0 | 3.2 | 0.00 | 2.18 | 0.41 | 96 | 1005.8 |
| 20260507103013 | 7 | 277 | 0.0 | 4.8 | 0.00 | 2.18 | 0.41 | 96 | 1005.8 |
| 20260507102506 | 7 | 181 | 0.0 | 3.2 | 0.00 | 2.18 | 0.41 | 96 | 1005.8 |
| 20260507102008 | 7 | 193 | 0.0 | 3.2 | 0.00 | 2.18 | 0.41 | 96 | 1005.7 |
| 20260507101516 | 7 | 5 | 0.0 | 3.2 | 0.00 | 2.18 | 0.41 | 96 | 1005.3 |
| 20260507101008 | 7 | 315 | 0.0 | 0.0 | 0.00 | 2.18 | 0.41 | 96 | 1005.1 |
| 20260507100508 | 7 | 360 | 0.0 | 0.0 | 0.00 | 2.18 | 0.41 | 96 | 1005.1 |
| 20260507100025 | 7 | 360 | 0.0 | 0.0 | 0.00 | 2.18 | 0.41 | 96 | 1005.3 |
| 20260507095510 | 7 | 360 | 0.0 | 0.0 | 0.00 | 2.18 | 0.41 | 95 | 1005.2 |
| 20260507095013 | 7 | 360 | 0.0 | 0.0 | 0.00 | 2.18 | 0.41 | 95 | 1004.9 |
| 20260507094507 | 7 | 360 | 0.0 | 0.0 | 0.00 | 2.18 | 0.41 | 95 | 1005.1 |
| 20260507094002 | 7 | 360 | 0.0 | 0.0 | 0.00 | 2.18 | 0.41 | 96 | 1005.0 |
| 20260507093503 | 7 | 360 | 0.0 | 3.2 | 0.00 | 2.18 | 0.41 | 96 | 1005.1 |
| 20260507093018 | 7 | 360 | 0.0 | 3.2 | 0.00 | 2.18 | 0.41 | 95 | 1005.0 |
| 20260507092504 | 7 | 360 | 0.0 | 3.2 | 0.00 | 2.18 | 0.41 | 95 | 1005.3 |
| 20260507092003 | 7 | 360 | 0.0 | 3.2 | 0.00 | 2.18 | 0.41 | 96 | 1005.2 |
| 20260507091519 | 7 | 9 | 0.0 | 3.2 | 0.00 | 2.18 | 0.41 | 96 | 1005.2 |
| 20260507091011 | 7 | 5 | 0.0 | 3.2 | 0.00 | 2.18 | 0.41 | 96 | 1005.0 |
| 20260507090510 | 7 | 274 | 0.0 | 3.2 | 0.00 | 2.18 | 0.41 | 96 | 1005.5 |
| 20260507090022 | 7 | 20 | 0.0 | 3.2 | 0.00 | 2.18 | 0.41 | 96 | 1005.3 |
| 20260507085508 | 7 | 20 | 0.0 | 3.2 | 0.00 | 2.18 | 0.41 | 96 | 1005.1 |
| 20260507085009 | 7 | 20 | 0.0 | 0.0 | 0.03 | 2.18 | 0.41 | 96 | 1005.1 |
| 20260507084525 | 7 | 20 | 0.0 | 0.0 | 0.03 | 2.18 | 0.41 | 96 | 1005.2 |
| 20260507084008 | 7 | 20 | 0.0 | 0.0 | 0.03 | 2.18 | 0.41 | 96 | 1005.3 |
| 20260507083509 | 8 | 20 | 0.0 | 0.0 | 0.03 | 2.18 | 0.41 | 96 | 1005.4 |
| 20260507083008 | 8 | 20 | 0.0 | 1.6 | 0.03 | 2.18 | 0.41 | 96 | 1005.0 |
| 20260507082503 | 8 | 20 | 0.0 | 3.2 | 0.03 | 2.18 | 0.41 | 96 | 1005.1 |
| 20260507082006 | 8 | 9 | 0.0 | 3.2 | 0.03 | 2.18 | 0.41 | 96 | 1005.1 |
| 20260507081512 | 8 | 9 | 0.0 | 3.2 | 0.03 | 2.18 | 0.41 | 96 | 1005.1 |
| 20260507081004 | 8 | 9 | 0.0 | 3.2 | 0.03 | 2.18 | 0.41 | 96 | 1004.9 |
| 20260507080505 | 8 | 20 | 0.0 | 3.2 | 0.03 | 2.18 | 0.41 | 96 | 1005.0 |
| 20260507080020 | 8 | 344 | 0.0 | 3.2 | 0.03 | 2.18 | 0.41 | 96 | 1005.0 |
| 20260507075507 | 8 | 331 | 0.0 | 3.2 | 0.03 | 2.18 | 0.41 | 96 | 1005.0 |
| 20260507075011 | 8 | 333 | 0.0 | 3.2 | 0.00 | 2.16 | 0.38 | 96 | 1004.9 |
| 20260507074524 | 8 | 55 | 0.0 | 3.2 | 0.00 | 2.16 | 0.38 | 96 | 1004.9 |
| 20260507074007 | 8 | 55 | 0.0 | 3.2 | 0.00 | 2.16 | 0.38 | 96 | 1004.9 |
| 20260507073509 | 8 | 71 | 0.0 | 3.2 | 0.00 | 2.16 | 0.38 | 95 | 1005.0 |
| 20260507073029 | 8 | 13 | 0.0 | 4.8 | 0.00 | 2.16 | 0.38 | 95 | 1004.8 |
| 20260507072510 | 8 | 13 | 0.0 | 4.8 | 0.00 | 2.16 | 0.38 | 95 | 1004.8 |
| 20260507072011 | 8 | 291 | 1.6 | 3.2 | 0.00 | 2.16 | 0.38 | 95 | 1004.8 |
| 20260507071511 | 8 | 18 | 0.0 | 3.2 | 0.00 | 2.16 | 0.38 | 95 | 1004.6 |
| 20260507071005 | 8 | 360 | 0.0 | 3.2 | 0.00 | 2.16 | 0.38 | 95 | 1004.7 |
| 20260507070504 | 8 | 65 | 0.0 | 3.2 | 0.00 | 2.16 | 0.38 | 95 | 1004.6 |
| 20260507070014 | 8 | 360 | 0.0 | 3.2 | 0.00 | 2.16 | 0.38 | 95 | 1004.5 |
| 20260507065505 | 8 | 336 | 0.0 | 3.2 | 0.00 | 2.16 | 0.38 | 96 | 1004.4 |
| 20260507065005 | 8 | 347 | 0.0 | 3.2 | 0.00 | 2.16 | 0.38 | 96 | 1004.1 |
| 20260507064523 | 8 | 340 | 0.0 | 3.2 | 0.00 | 2.16 | 0.38 | 96 | 1004.1 |
| 20260507064008 | 9 | 347 | 0.0 | 3.2 | 0.00 | 2.16 | 0.38 | 95 | 1004.0 |
| 20260507063508 | 9 | 325 | 0.0 | 3.2 | 0.00 | 2.16 | 0.38 | 95 | 1004.2 |
| 20260507063036 | 9 | 23 | 0.0 | 3.2 | 0.00 | 2.16 | 0.38 | 95 | 1004.0 |
| 20260507062509 | 9 | 23 | 0.0 | 3.2 | 0.00 | 2.16 | 0.38 | 95 | 1004.0 |
| 20260507062011 | 9 | 360 | 0.0 | 3.2 | 0.00 | 2.16 | 0.38 | 96 | 1004.0 |
| 20260507061531 | 9 | 319 | 0.0 | 4.8 | 0.00 | 2.16 | 0.38 | 96 | 1003.9 |
| 20260507061009 | 9 | 319 | 0.0 | 4.8 | 0.03 | 2.16 | 0.38 | 95 | 1003.8 |
| 20260507060509 | 9 | 15 | 1.6 | 4.8 | 0.03 | 2.16 | 0.38 | 95 | 1003.5 |
| 20260507060027 | 9 | 19 | 3.2 | 4.8 | 0.03 | 2.16 | 0.38 | 95 | 1003.6 |
| 20260507055504 | 9 | 5 | 1.6 | 4.8 | 0.05 | 2.16 | 0.38 | 95 | 1003.7 |
| 20260507055004 | 10 | 25 | 1.6 | 4.8 | 0.13 | 2.16 | 0.38 | 95 | 1003.7 |
| 20260507054517 | 10 | 15 | 1.6 | 3.2 | 0.18 | 2.16 | 0.38 | 95 | 1003.9 |
| 20260507054005 | 10 | 346 | 1.6 | 6.4 | 0.20 | 2.16 | 0.38 | 95 | 1003.8 |
| 20260507053507 | 10 | 30 | 1.6 | 6.4 | 0.20 | 2.16 | 0.38 | 95 | 1003.7 |
| 20260507053022 | 10 | 5 | 3.2 | 4.8 | 0.23 | 2.16 | 0.38 | 96 | 1003.8 |
| 20260507052509 | 10 | 352 | 3.2 | 6.4 | 0.25 | 2.16 | 0.38 | 96 | 1003.8 |
| 20260507052009 | 10 | 9 | 3.2 | 6.4 | 0.30 | 2.16 | 0.38 | 96 | 1004.2 |
| 20260507051526 | 10 | 333 | 1.6 | 4.8 | 0.33 | 2.16 | 0.38 | 96 | 1004.1 |
| 20260507051009 | 10 | 20 | 1.6 | 4.8 | 0.33 | 2.13 | 0.36 | 96 | 1004.2 |